GW1158 Weather Reports


time (UTC)temp
C
wind
direction
speed
KPH
gust
KPH
rain 1hr
cm
rain 24hr
cm
rain mn
cm
humidity
%
barometer
mb
20260502152033 10 20 4.8 8.0 0.00 0.00 0.00 27 1024.4
20260502151556 10 336 3.2 6.4 0.00 0.00 0.00 26 1024.4
20260502151029 10 68 3.2 6.4 0.00 0.00 0.00 26 1024.6
20260502150529 10 38 3.2 9.7 0.00 0.00 0.00 28 1024.6
20260502150123 9 25 4.8 11.3 0.00 0.00 0.00 29 1024.6
20260502130536 1 240 1.6 3.2 0.00 0.00 0.00 46 1024.9
20260502130103 1 230 1.6 3.2 0.00 0.00 0.00 45 1024.8
20260502123533 1 231 0.0 4.8 0.00 0.00 0.00 47 1024.7
20260502123044 1 225 1.6 3.2 0.00 0.00 0.00 47 1024.6
20260502122533 1 0 0.0 3.2 0.00 0.00 0.00 46 1024.7
20260502122033 1 235 1.6 3.2 0.00 0.00 0.00 46 1024.7
20260502121543 1 233 1.6 3.2 0.00 0.00 0.00 45 1024.6
20260502121035 1 239 0.0 3.2 0.00 0.00 0.00 45 1024.6
20260502120533 1 226 1.6 3.2 0.00 0.00 0.00 45 1024.6
20260502120110 1 246 0.0 3.2 0.00 0.00 0.00 45 1024.6
20260502115536 1 0 0.0 3.2 0.00 0.00 0.00 46 1024.6
20260502115034 1 240 0.0 3.2 0.00 0.00 0.00 46 1024.6
20260502114553 1 222 1.6 3.2 0.00 0.00 0.00 46 1024.6
20260502114034 1 216 0.0 3.2 0.00 0.00 0.00 46 1024.7
20260502113534 1 229 1.6 3.2 0.00 0.00 0.00 45 1024.7
20260502113055 1 226 3.2 3.2 0.00 0.00 0.00 46 1024.7
20260502112533 1 237 0.0 3.2 0.00 0.00 0.00 46 1024.8
20260502112036 1 236 1.6 3.2 0.00 0.00 0.00 46 1024.7
20260502111547 1 233 0.0 4.8 0.00 0.00 0.00 46 1024.8
20260502111034 1 233 3.2 4.8 0.00 0.00 0.00 45 1024.7
20260502110537 1 241 1.6 4.8 0.00 0.00 0.00 45 1024.8
20260502110047 1 239 0.0 3.2 0.00 0.00 0.00 45 1024.8
20260502105533 1 239 0.0 3.2 0.00 0.00 0.00 45 1024.9
20260502105034 1 241 1.6 4.8 0.00 0.00 0.00 45 1024.9
20260502104548 1 233 0.0 4.8 0.00 0.00 0.00 45 1025.0
20260502104035 1 238 1.6 4.8 0.00 0.00 0.00 46 1024.9
20260502103535 1 248 0.0 3.2 0.00 0.00 0.00 46 1024.9
20260502103107 1 0 0.0 3.2 0.00 0.00 0.00 45 1024.9
20260502102534 1 224 0.0 3.2 0.00 0.00 0.00 45 1024.9
20260502102033 1 231 0.0 3.2 0.00 0.00 0.00 46 1024.9
20260502101550 1 225 0.0 1.6 0.00 0.00 0.00 46 1024.8
20260502101032 1 0 0.0 1.6 0.00 0.00 0.00 46 1024.8
20260502100534 1 210 0.0 1.6 0.00 0.00 0.00 46 1024.8
20260502091032 0 0 0.0 0.0 0.00 0.00 0.00 52 1024.9
20260502090532 1 0 0.0 0.0 0.00 0.00 0.00 49 1024.8
20260502071034 4 228 1.6 3.2 0.00 0.00 0.00 39 1024.8
20260502070533 3 251 0.0 6.4 0.00 0.00 0.00 39 1024.7
20260502070045 4 252 1.6 6.4 0.00 0.00 0.00 40 1024.7
20260502065532 3 0 0.0 4.8 0.00 0.00 0.00 39 1024.7
20260502065030 4 249 3.2 4.8 0.00 0.00 0.00 39 1024.6
20260502064545 3 10 0.0 4.8 0.00 0.00 0.00 39 1024.6
20260502064033 3 306 0.0 4.8 0.00 0.00 0.00 39 1024.6
20260502063534 3 235 1.6 4.8 0.00 0.00 0.00 40 1024.5
20260502063050 4 236 1.6 4.8 0.00 0.00 0.00 40 1024.5
20260502062533 4 257 1.6 4.8 0.00 0.00 0.00 39 1024.5
20260502062033 4 239 1.6 3.2 0.00 0.00 0.00 39 1024.5
20260502061543 3 0 0.0 3.2 0.00 0.00 0.00 39 1024.4
20260502061032 3 0 1.6 3.2 0.00 0.00 0.00 40 1024.4
20260502060533 3 239 0.0 1.6 0.00 0.00 0.00 40 1024.4
20260502060044 3 239 0.0 1.6 0.00 0.00 0.00 41 1024.2
20260502055533 3 239 0.0 1.6 0.00 0.00 0.00 40 1024.2
20260502055029 3 237 0.0 1.6 0.00 0.00 0.00 42 1024.3
20260502054554 2 0 0.0 1.6 0.00 0.00 0.00 42 1024.3
20260502054033 3 0 0.0 0.0 0.00 0.00 0.00 40 1024.3
20260502053532 3 0 0.0 0.0 0.00 0.00 0.00 39 1024.2
20260502053048 3 0 0.0 1.6 0.00 0.00 0.00 40 1024.2
20260502052535 4 0 0.0 1.6 0.00 0.00 0.00 39 1024.0
20260502052033 4 0 0.0 1.6 0.00 0.00 0.00 38 1024.0
20260502051541 4 281 0.0 1.6 0.00 0.00 0.00 38 1024.0
20260502051033 4 0 0.0 1.6 0.00 0.00 0.00 39 1023.9
20260502050534 4 0 0.0 3.2 0.00 0.00 0.00 40 1024.0
20260502050039 4 0 0.0 3.2 0.00 0.00 0.00 38 1023.9
20260502045536 4 233 1.6 3.2 0.00 0.00 0.00 40 1023.9
20260502045033 4 221 1.6 1.6 0.00 0.00 0.00 39 1024.0
20260502044541 5 229 0.0 3.2 0.00 0.00 0.00 40 1024.0
20260502044032 5 0 0.0 3.2 0.00 0.00 0.00 38 1024.0
20260502043529 5 229 1.6 3.2 0.00 0.00 0.00 37 1023.9
20260502043050 5 0 0.0 3.2 0.00 0.00 0.00 37 1024.0
20260502042532 6 248 0.0 3.2 0.00 0.00 0.00 35 1023.9
20260502042032 6 246 1.6 3.2 0.00 0.00 0.00 34 1023.9
20260502041547 6 100 0.0 3.2 0.00 0.00 0.00 33 1023.9
20260502041033 7 0 0.0 9.7 0.00 0.00 0.00 32 1023.9
20260502040533 7 260 3.2 11.3 0.00 0.00 0.00 30 1023.8
20260502040051 7 212 1.6 16.1 0.00 0.00 0.00 31 1023.6
20260502035533 7 99 3.2 16.1 0.00 0.00 0.00 31 1023.4
20260502035035 7 75 6.4 16.1 0.00 0.00 0.00 31 1023.4
20260502034545 7 335 3.2 12.9 0.00 0.00 0.00 32 1023.2
20260502034035 7 350 6.4 12.9 0.00 0.00 0.00 31 1023.3
20260502033534 7 23 3.2 11.3 0.00 0.00 0.00 31 1023.2
20260502033044 7 77 1.6 8.0 0.00 0.00 0.00 31 1023.2
20260502032535 7 136 0.0 14.5 0.00 0.00 0.00 31 1023.2
20260502032035 7 290 4.8 14.5 0.00 0.00 0.00 31 1023.1
20260502031543 7 24 4.8 11.3 0.00 0.00 0.00 30 1023.0
20260502031034 7 68 3.2 9.7 0.00 0.00 0.00 31 1022.8
20260502030533 7 51 0.0 14.5 0.00 0.00 0.00 30 1022.8
20260502030048 7 79 1.6 14.5 0.00 0.00 0.00 30 1022.7
20260502025535 7 103 1.6 6.4 0.00 0.00 0.00 30 1022.5
20260502025033 7 197 3.2 6.4 0.00 0.00 0.00 30 1022.4
20260502024545 8 217 0.0 1.6 0.00 0.00 0.00 27 1022.3
20260502024034 9 222 0.0 4.8 0.00 0.00 0.00 25 1022.2
20260502023533 9 0 0.0 4.8 0.00 0.00 0.00 24 1022.1
20260502023044 10 136 0.0 4.8 0.00 0.00 0.00 23 1022.0
20260502022536 10 122 1.6 4.8 0.00 0.00 0.00 23 1021.9
20260502022033 10 160 0.0 3.2 0.00 0.00 0.00 23 1022.0
20260502021544 10 165 0.0 4.8 0.00 0.00 0.00 22 1021.9
20260502021036 11 200 1.6 4.8 0.00 0.00 0.00 22 1021.9
20260502020535 11 154 1.6 4.8 0.00 0.00 0.00 21 1021.8
20260502020049 11 139 3.2 6.4 0.00 0.00 0.00 20 1021.7
20260502015535 12 168 1.6 6.4 0.00 0.00 0.00 20 1021.7
20260502015034 12 139 0.0 8.0 0.00 0.00 0.00 19 1021.7
20260502014542 12 159 1.6 8.0 0.00 0.00 0.00 19 1021.6
20260502014037 12 203 1.6 8.0 0.00 0.00 0.00 19 1021.7
20260502013533 12 98 1.6 4.8 0.00 0.00 0.00 19 1021.6
20260502013056 12 88 1.6 3.2 0.00 0.00 0.00 19 1021.5
20260502012535 12 0 0.0 8.0 0.00 0.00 0.00 19 1021.5
20260502012033 12 0 1.6 8.0 0.00 0.00 0.00 19 1021.4
20260502011547 12 82 3.2 11.3 0.00 0.00 0.00 19 1021.5
20260502011033 12 63 1.6 11.3 0.00 0.00 0.00 19 1021.4
20260502010534 13 62 0.0 11.3 0.00 0.00 0.00 19 1021.5
20260502010049 12 155 1.6 11.3 0.00 0.00 0.00 18 1021.4
20260502005533 12 83 4.8 11.3 0.00 0.00 0.00 19 1021.4
20260502005035 12 84 3.2 11.3 0.00 0.00 0.00 20 1021.3
20260502004543 12 26 3.2 19.3 0.00 0.00 0.00 18 1021.4
20260502004035 12 65 3.2 19.3 0.00 0.00 0.00 19 1021.4
20260502003535 12 146 6.4 20.9 0.00 0.00 0.00 18 1021.4
20260502003043 12 56 8.0 20.9 0.00 0.00 0.00 19 1021.4
20260502002533 12 352 4.8 12.9 0.00 0.00 0.00 18 1021.4
20260502002033 12 131 4.8 12.9 0.00 0.00 0.00 18 1021.5
20260502001547 12 54 4.8 12.9 0.00 0.00 0.00 19 1021.4
20260502001034 12 40 6.4 12.9 0.00 0.00 0.00 18 1021.5
20260502000533 12 78 3.2 12.9 0.00 0.00 0.00 17 1021.5
20260502000046 12 191 4.8 12.9 0.00 0.00 0.00 18 1021.5
20260501235533 12 71 3.2 17.7 0.00 0.00 0.00 19 1021.5
20260501235033 12 354 3.2 17.7 0.00 0.00 0.00 17 1021.5
20260501234542 12 38 9.7 17.7 0.00 0.00 0.00 18 1021.5
20260501234035 12 37 6.4 12.9 0.00 0.00 0.00 18 1021.5
20260501233533 12 55 4.8 12.9 0.00 0.00 0.00 19 1021.5
20260501233050 12 11 4.8 17.7 0.00 0.00 0.00 17 1021.5
20260501232533 12 25 11.3 17.7 0.00 0.00 0.00 18 1021.7
20260501232033 12 2 8.0 12.9 0.00 0.00 0.00 18 1021.6
20260501231543 12 17 6.4 11.3 0.00 0.00 0.00 17 1021.7
20260501231033 12 66 6.4 20.9 0.00 0.00 0.00 17 1021.7
20260501230533 12 245 8.0 20.9 0.00 0.00 0.00 18 1021.7
20260501230043 12 16 8.0 16.1 0.00 0.00 0.00 18 1021.7
20260501225533 12 360 9.7 22.5 0.00 0.00 0.00 18 1021.7
20260501225033 12 48 8.0 24.1 0.00 0.00 0.00 18 1021.6
20260501224549 12 72 12.9 24.1 0.00 0.00 0.00 19 1021.7
20260501224033 12 336 3.2 22.5 0.00 0.00 0.00 18 1021.6
20260501223533 12 32 9.7 22.5 0.00 0.00 0.00 19 1021.7
20260501223054 12 343 11.3 24.1 0.00 0.00 0.00 18 1021.7
20260501222533 12 56 8.0 24.1 0.00 0.00 0.00 18 1021.7
20260501222033 12 35 6.4 16.1 0.00 0.00 0.00 18 1021.6
20260501221541 12 13 6.4 16.1 0.00 0.00 0.00 18 1021.8
20260501221033 13 25 11.3 16.1 0.00 0.00 0.00 19 1021.7
20260501220535 12 206 3.2 9.7 0.00 0.00 0.00 18 1021.6
20260501220040 12 207 3.2 11.3 0.00 0.00 0.00 19 1021.8
20260501215535 12 4 6.4 20.9 0.00 0.00 0.00 19 1021.8
20260501215037 12 21 8.0 20.9 0.00 0.00 0.00 18 1021.9
20260501214543 12 55 3.2 9.7 0.00 0.00 0.00 19 1021.9
20260501214033 12 200 3.2 14.5 0.00 0.00 0.00 19 1021.9
20260501213534 12 13 8.0 14.5 0.00 0.00 0.00 19 1022.0
20260501213048 12 56 4.8 11.3 0.00 0.00 0.00 21 1022.0
20260501212530 12 281 4.8 11.3 0.00 0.00 0.00 20 1022.0
20260501212030 13 290 3.2 11.3 0.00 0.00 0.00 23 1022.0
20260501211555 12 252 3.2 11.3 0.00 0.00 0.00 22 1022.0
20260501211029 12 248 3.2 11.3 0.00 0.00 0.00 27 1022.1
20260501210530 12 332 3.2 9.7 0.00 0.00 0.00 23 1022.2
20260501210044 12 354 3.2 9.7 0.00 0.00 0.00 26 1022.2
20260501205531 12 301 3.2 9.7 0.00 0.00 0.00 25 1022.2
20260501205030 12 309 3.2 9.7 0.00 0.00 0.00 24 1022.3
20260501204609 12 349 1.6 9.7 0.00 0.00 0.00 28 1022.3
20260501204033 12 244 3.2 9.7 0.00 0.00 0.00 27 1022.2
20260501203535 12 141 1.6 9.7 0.00 0.00 0.00 29 1022.4
20260501203059 11 271 4.8 9.7 0.00 0.00 0.00 27 1022.4
20260501202532 12 297 3.2 9.7 0.00 0.00 0.00 28 1022.5
20260501202032 11 342 3.2 8.0 0.00 0.00 0.00 27 1022.4
20260501201546 11 360 1.6 9.7 0.00 0.00 0.00 29 1022.4
20260501201035 11 23 4.8 11.3 0.00 0.00 0.00 27 1022.5
20260501200533 11 309 3.2 11.3 0.00 0.00 0.00 28 1022.5
20260501200050 11 245 3.2 9.7 0.00 0.00 0.00 28 1022.5
20260501195533 11 14 3.2 14.5 0.00 0.00 0.00 29 1022.5
20260501195035 11 191 6.4 14.5 0.00 0.00 0.00 26 1022.6
20260501194544 11 29 1.6 6.4 0.00 0.00 0.00 29 1022.5
20260501194030 11 37 3.2 9.7 0.00 0.00 0.00 27 1022.6
20260501193537 11 238 3.2 9.7 0.00 0.00 0.00 28 1022.7
20260501193047 11 311 1.6 9.7 0.00 0.00 0.00 28 1022.7
20260501192534 11 255 3.2 6.4 0.00 0.00 0.00 30 1022.8
20260501192033 10 229 1.6 11.3 0.00 0.00 0.00 30 1022.7
20260501191543 10 337 4.8 11.3 0.00 0.00 0.00 30 1022.8
20260501191036 10 262 3.2 8.0 0.00 0.00 0.00 27 1022.9
20260501190533 10 326 3.2 6.4 0.00 0.00 0.00 27 1022.9
20260501190046 10 299 1.6 6.4 0.00 0.00 0.00 28 1022.9
20260501185530 10 312 3.2 6.4 0.00 0.00 0.00 27 1022.9
20260501185035 10 4 1.6 6.4 0.00 0.00 0.00 29 1022.9
20260501184546 9 254 1.6 8.0 0.00 0.00 0.00 33 1023.0
20260501184030 9 351 1.6 8.0 0.00 0.00 0.00 33 1023.1
20260501183530 9 347 3.2 6.4 0.00 0.00 0.00 33 1023.2
20260501183044 9 269 3.2 6.4 0.00 0.00 0.00 33 1023.1
20260501182529 8 41 1.6 8.0 0.00 0.00 0.00 33 1023.1
20260501182029 8 358 4.8 8.0 0.00 0.00 0.00 37 1023.2
20260501181551 8 316 1.6 8.0 0.00 0.00 0.00 36 1023.2
20260501181030 8 321 3.2 8.0 0.00 0.00 0.00 37 1023.2
20260501180529 8 285 3.2 8.0 0.00 0.00 0.00 40 1023.2
20260501180057 7 9 3.2 8.0 0.00 0.00 0.00 39 1023.3
20260501175531 7 295 3.2 8.0 0.00 0.00 0.00 40 1023.4
20260501175033 7 292 3.2 6.4 0.00 0.00 0.00 40 1023.5
20260501174545 8 2 3.2 6.4 0.00 0.00 0.00 40 1023.4
20260501174030 8 305 3.2 6.4 0.00 0.00 0.00 40 1023.4
20260501173533 8 338 1.6 6.4 0.00 0.00 0.00 42 1023.5
20260501173040 8 338 1.6 8.0 0.00 0.00 0.00 41 1023.4
20260501172530 8 247 1.6 8.0 0.00 0.00 0.00 43 1023.5
20260501172030 7 250 4.8 8.0 0.00 0.00 0.00 43 1023.6
20260501171556 7 28 3.2 6.4 0.00 0.00 0.00 43 1023.7
20260501171032 8 357 1.6 9.7 0.00 0.00 0.00 44 1023.7
20260501170533 7 11 1.6 9.7 0.00 0.00 0.00 44 1023.7
20260501170043 7 243 3.2 9.7 0.00 0.00 0.00 43 1023.7
20260501165536 7 262 1.6 12.9 0.00 0.00 0.00 45 1023.7
20260501165034 7 200 3.2 12.9 0.00 0.00 0.00 46 1023.6
20260501164544 7 257 1.6 4.8 0.00 0.00 0.00 46 1023.6
20260501164033 7 343 1.6 8.0 0.00 0.00 0.00 45 1023.7
20260501163534 7 257 1.6 12.9 0.00 0.00 0.00 47 1023.7
20260501163047 7 347 3.2 12.9 0.00 0.00 0.00 48 1023.6
20260501162533 7 27 3.2 8.0 0.00 0.00 0.00 46 1023.5
20260501162030 7 319 1.6 8.0 0.00 0.00 0.00 46 1023.5
20260501161544 7 281 1.6 8.0 0.00 0.00 0.00 47 1023.6
20260501161030 7 294 1.6 6.4 0.00 0.00 0.00 46 1023.5
20260501160531 7 46 0.0 6.4 0.00 0.00 0.00 46 1023.4
20260501160048 6 256 1.6 6.4 0.00 0.00 0.00 47 1023.4
20260501155530 6 329 1.6 6.4 0.00 0.00 0.00 46 1023.5
20260501155030 6 219 1.6 6.4 0.00 0.00 0.00 46 1023.5
20260501154546 6 170 1.6 6.4 0.00 0.00 0.00 44 1023.4
20260501154030 6 318 1.6 9.7 0.00 0.00 0.00 42 1023.4
20260501153533 6 326 1.6 9.7 0.00 0.00 0.00 45 1023.4
20260501153041 6 338 3.2 9.7 0.00 0.00 0.00 46 1023.5
20260501152531 6 293 3.2 9.7 0.00 0.00 0.00 42 1023.5